Regional Weather Roundup
Issued by NWS New Orleans/Baton Rouge, LA

Home | Current Version | Previous Version | Text Only | Print | Product List | Glossary On
Versions: 1 2 3 4 5 6 7 8 9 10 11 12 13 14 15 16 17 18 19 20 21 22 23 24 25 26 27 28 29 30 31 32 33 34 35 36 37 38 39 40 41 42 43 44 45 46 47 48 49 50
779
ASUS44 KLIX 220810
RWRLIX
NEW ORLEANS REGIONAL WEATHER ROUNDUP
NATIONAL WEATHER SERVICE NEW ORLEANS LA
300 AM CDT FRI AUG 22 2014

NOTE: "FAIR" INDICATES FEW OR NO CLOUDS BELOW 12,000 FEET WITH NO
      SIGNIFICANT WEATHER AND/OR OBSTRUCTIONS TO VISIBILITY.
      SKY/WX - SKY CONDITION AND SIGNIFICANT WEATHER.
      TMP - AIR TEMPERATURE.     DP    - DEWPOINT TEMPERATURE.
      RH  - RELATIVE HUMIDITY.   PRES  - PRESSURE.
      HI  - HEAT INDEX.          WCI   - WIND CHILL INDEX.

*  THESE STATIONS ARE NOT NWS OR FAA STATIONS AND ARE NOT UNDER
   NWS QUALITY CONTROL.

LAZ038-040-048-061>063-065>067-069-220900-
SOUTHEAST LOUISIANA

CITY           SKY/WX    TMP DP  RH WIND       PRES   REMARKS
N.O. AUDUBON   NOT AVBL
N.O. INTL ARPT PTCLDY    75  72  90 W5        30.07S
N.O. LAKEFRONT CLEAR     80  74  81 W3        30.08S
N.O. DOWNTOWN*   N/A     81  70  69 CALM      30.08S
SLIDELL        PTCLDY    75  71  87 CALM      30.07S
BATON ROUGE    CLEAR     74  73  97 CALM      30.08S FOG
BOOTHVILLE     CLEAR     81  77  88 CALM      30.07F
BELLE CHASSE   PTCLDY    74  71  91 CALM      30.07S
BOGALUSA*        N/A     75  71  88 CALM      30.10S
GALLIANO*      NOT AVBL
NEW ROADS*       N/A     73  72  98 CALM      30.08S FOG
GONZALES*        N/A     73  73 100 CALM      30.07F
HAMMOND*       CLEAR     73  72  94 CALM      30.09F
HOUMA*         CLEAR     73  70  90 CALM      30.07S
PORT FOURCHON* SUNNY     84  77  79 CALM      30.09S

$$

MSZ070-080>082-220900-
SOUTHERN MISSISSIPPI

CITY           SKY/WX    TMP DP  RH WIND       PRES   REMARKS
MCCOMB         CLEAR     76  73  91 N5        30.09S
GULFPORT       PTCLDY    78  76  93 CALM      30.06F
BILOXI         PTCLDY    80  75  84 CALM      30.07S
PASCAGOULA     PTCLDY    75  74  96 CALM      30.07S

$$

COASTAL OBSERVATIONS
LAKE AND NEARSHORE STATIONS

STATION/POSITION TIME  TEMP    WIND        PRES    WAVE
                       AIR SEA DIR/SP/G            HT/PER
                 (UTC) (F)     (DEG/KT/KT) (MB)    (FT/S)
PASCAGOULA       0800   85     310/  5/  6 1017.5
WAVELAND YACHT   0800   80     290/  4/  4 1017.6
GRAND ISLE       0800   84 89  250/  2/  3 1018.8
SOUTHWEST PASS   0800   84 88  190/  3/  5 1018.4
NEW CANAL        0800   80 84  240/  2/  3 1018.7
SHELL BEACH      0800   80 82  240/  4/  5 1018.1

OFFSHORE STATIONS

STATION/POSITION TIME  TEMP    WIND        PRES    WAVE
                       AIR SEA DIR/SP/G            HT/PER
                 (UTC) (F)     (DEG/KT/KT) (MB)    (FT/S)
64 S DAUPHIN ISL 0709   85 89  260/  4/  6 1018.2

$$




USA.gov is the U.S. government's official web portal to all federal, state and local government web resources and services.